Blytheville Muni Airport, AR

11:37 AM CDT on May 29, 2017 (GMT -0500)
Blytheville Municipal

Weather History for KHKA - April, 2014

Change the Weather History Date:

Monday, April 7, 2014

  Actual Average Record
Temperature  
Mean Temperature 48 °F -  
Max Temperature 53 °F 68 °F 86 °F (1946)
Min Temperature 44 °F 47 °F 26 °F (2007)
Degree Days  
Heating Degree Days 17    
Moisture  
Dew Point 47 °F    
Average Humidity 90    
Maximum Humidity 100    
Minimum Humidity 74    
Precipitation  
Precipitation 0.24 in - - ()
Sea Level Pressure  
Sea Level Pressure 29.67 in    
Wind  
Wind Speed 12 mph (NNW)    
Max Wind Speed 21 mph    
Max Gust Speed 28 mph    
Visibility 8 miles    
Events Rain    
Averages and records for this station are not official NWS values.
T = Trace of Precipitation, MM = Missing Value Source: NWS Daily Summary

Daily Weather History Graph

Daily Weather History Graph

Search for Another Location

Airport or City:

Trip Planner

Search our weather history database for the weather conditions in past years. The results will help you decide how hot, cold, wet, or windy it might be!

Date:

Astronomy

Apr. 07, 2014 Rise Set
Actual Time 6:37 AM CDT 7:26 PM CDT
Civil Twilight 6:11 AM CDT 7:52 PM CDT
Nautical Twilight 5:40 AM CDT 8:23 PM CDT
Astronomical Twilight 5:08 AM CDT 8:54 PM CDT
Moon 12:37 PM CDT (4/7) 1:58 AM CDT (4/7)
Length of Visible Light 13h 41m
Length of Day
12h 49m
First Quarter, 53% of the Moon is Illuminated
Apr 7
First Quarter
Apr 15
Full
Apr 22
Last Quarter
Apr 29
New
May 6
First Quarter

Hourly Weather History & Observations

Time (CDT) Temp. Windchill Dew Point Humidity Pressure Visibility Wind Dir Wind Speed Gust Speed Precip Events Conditions
12:53 AM 50.0 °F - 48.0 °F 93% 29.75 in 10.0 mi NE 9.2 mph - 0.00 in   Overcast
1:53 AM 50.0 °F - 48.0 °F 93% 29.71 in 8.0 mi North 12.7 mph - 0.00 in Rain Light Rain
2:48 AM 50.0 °F - 48.2 °F 94% 29.63 in 10.0 mi NE 15.0 mph - 0.00 in   Overcast
2:53 AM 50.0 °F - 48.0 °F 93% 29.62 in 10.0 mi NE 13.8 mph - 0.00 in   Overcast
3:53 AM 50.0 °F - 48.0 °F 93% 29.62 in 7.0 mi ENE 8.1 mph - N/A   Overcast
4:40 AM 50.0 °F - 48.2 °F 94% 29.60 in 6.0 mi ENE 6.9 mph - N/A   Overcast
4:53 AM 51.1 °F - 48.9 °F 92% 29.61 in 4.0 mi East 8.1 mph - N/A   Overcast
5:04 AM 51.8 °F - 50.0 °F 94% 29.61 in 4.0 mi ENE 5.8 mph - N/A   Overcast
5:51 AM 51.8 °F - 50.0 °F 94% 29.56 in 6.0 mi ENE 8.1 mph - N/A   Overcast
5:53 AM 51.1 °F - 50.0 °F 96% 29.56 in 6.0 mi ENE 8.1 mph - N/A   Overcast
6:50 AM 51.8 °F - 48.2 °F 88% 29.54 in 2.0 mi North 5.8 mph - 0.09 in Rain Heavy Rain
6:51 AM 51.8 °F - 48.2 °F 88% 29.55 in 2.0 mi North 5.8 mph - 0.11 in Rain Heavy Rain
6:53 AM 51.1 °F - 50.0 °F 96% 29.55 in 1.8 mi North 5.8 mph - 0.13 in Rain Heavy Rain
7:00 AM 51.8 °F - 50.0 °F 94% 29.57 in 2.5 mi NNW 5.8 mph - 0.02 in Rain Rain
7:18 AM 51.8 °F - 50.0 °F 94% 29.59 in 3.0 mi WNW 11.5 mph - 0.08 in Rain Rain
7:35 AM 50.0 °F - 50.0 °F 100% 29.60 in 4.0 mi NW 19.6 mph 23.0 mph 0.10 in Rain Light Rain
7:53 AM 50.0 °F - 48.9 °F 96% 29.61 in 5.0 mi NW 18.4 mph - 0.10 in Rain Light Rain
8:31 AM 50.0 °F - 48.2 °F 94% 29.58 in 10.0 mi North 18.4 mph - 0.01 in   Overcast
8:53 AM 51.1 °F - 48.9 °F 92% 29.56 in 10.0 mi NNW 13.8 mph - 0.01 in   Overcast
9:53 AM 48.9 °F - 46.9 °F 93% 29.59 in 10.0 mi WNW 19.6 mph 24.2 mph N/A   Overcast
10:53 AM 48.9 °F - 46.0 °F 90% 29.63 in 10.0 mi NW 18.4 mph 25.3 mph N/A   Overcast
11:53 AM 48.0 °F - 46.9 °F 96% 29.65 in 4.0 mi NW 19.6 mph 25.3 mph 0.00 in Rain Light Rain
12:44 PM 48.2 °F - 46.4 °F 93% 29.68 in 9.0 mi NW 19.6 mph 25.3 mph 0.00 in   Overcast
12:53 PM 48.0 °F - 46.0 °F 93% 29.68 in 10.0 mi NW 17.3 mph 26.5 mph 0.00 in   Overcast
1:31 PM 48.2 °F - 44.6 °F 87% 29.69 in 10.0 mi NW 17.3 mph 25.3 mph N/A   Overcast
1:53 PM 48.0 °F - 45.0 °F 89% 29.70 in 10.0 mi NW 20.7 mph 25.3 mph N/A   Overcast
2:00 PM 48.2 °F - 44.6 °F 87% 29.70 in 10.0 mi NW 19.6 mph 27.6 mph N/A   Overcast
2:13 PM 48.2 °F - 44.6 °F 87% 29.71 in 10.0 mi NW 19.6 mph - N/A   Overcast
3:24 PM 48.2 °F - 42.8 °F 82% 29.73 in 10.0 mi NW 18.4 mph - N/A   Overcast
3:53 PM 50.0 °F - 44.1 °F 80% 29.74 in 10.0 mi WNW 10.4 mph - N/A   Overcast
4:53 PM 52.0 °F - 44.1 °F 74% 29.76 in 10.0 mi NW 15.0 mph - N/A   Overcast
5:53 PM 52.0 °F - 45.0 °F 77% 29.79 in 10.0 mi NW 12.7 mph - N/A   Overcast
6:53 PM 50.0 °F - 43.0 °F 77% 29.81 in 10.0 mi NNW 11.5 mph - N/A   Scattered Clouds
7:53 PM 46.9 °F - 42.1 °F 83% 29.83 in 10.0 mi Calm Calm - N/A   Clear
8:53 PM 46.0 °F 43.1 °F 42.1 °F 86% 29.85 in 10.0 mi SSE 5.8 mph - N/A   Clear
9:53 PM 45.0 °F 41.8 °F 42.1 °F 90% 29.88 in 10.0 mi SW 5.8 mph - N/A   Clear
10:53 PM 44.1 °F 42.5 °F 41.0 °F 89% 29.88 in 10.0 mi South 3.5 mph - N/A   Clear
11:53 PM 44.1 °F 40.1 °F 41.0 °F 89% 29.88 in 10.0 mi South 6.9 mph - N/A   Clear